Погода Шамахы

Погода Шамахы : погода сейчас, прогноз погоды и архив. Всё, что Вы хотите узнать о погоде Шамахы!

Поиск расширенной информации на нашем сайте:

Другие новости

Новости СМИ2

Главная страница сайта

Новости сайта

03.07.2017

Напоминаем, что на нашем специализированном сайте Метеоцентр.Азия вы можете получить высокодетализированные автоматические прогнозы погоды по пунктам России, СНГ и мира в авиационном формате (включающие направление и скорость ветра, видимость, явления погоды, количество и форму облачности, нижнюю и верхнюю границу облачности).


Погода Шамахы - сегодня

Время (UTC), дата Ветер
(°,м/с) 
Видим.   Явления Облачность Т
(°С)
Тd
(°С)
f(%) Тe
(°С)
Pmin
(гПа)
dP
(гПа)
Po
(мм)
O2
(г/м3)
Тmin Tmax R s Состояние
почвы
03 17.02.18 290 (З) 4000 м  дымка{туман}  10/10 600 м 
[Sc]
+1.2 -0.2 90 +2  1030.5  -1.1  696  279           
06 17.02.18 тихо ()   4000 м  дымка  10/10 600 м 
[Sc]
+2.4 +0.8 89 +2  1029.1  -0.6  696  278  +1    0.3     
09 17.02.18 260 (З) 4000 м  дымка  10/10 600 м 
[Sc]
+2.8 +1.5 91 +4  1027.9  -0.7  695  277           
12 17.02.18 270 (З) 4000 м  дымка  10/10 600 м 
[Sc]
+3.6 +2.1 90 +3  1026.3  -1.6  694  276           
15 17.02.18 240 (ЮЗ) 20000 м    10/10 600 м 
[Sc]
+3.3 +1.5 88 +4  1024.8  -1.5  693  276           
21 17.02.18 тихо ()   2000 м  дымка  10/10 600 м 
[Sc]
+2.3 +1.3 93 +2  1024  -0.5  693  276           
00 18.02.18 240 (ЮЗ) 0200 м  туман  ?/?  
+2 +1.7 98 +3  1024.2  -0.6  692  276           
03 18.02.18 тихо ()   0200 м  туман  ?/?  
+2.1 +1.8 98 +2  1021.6  -2  691  276           
06 18.02.18 210 (ЮЗ) 0200 м  слаб. дождь{туман}  ?/?  
+2.6 +2.3 98 +3  1020.4  -0.5  690  275  +1.8         
09 18.02.18 100 (В) 0200 м  дождь{туман}  ?/?  
+2.7 +2.4 98 +3  1019.6  -0.8  690  275           
12 18.02.18 270 (З) 4000 м  дождь{туман}  10/10 300 м 
[Ns]
+1.8 +1.3 96 +1  1017.6  -2.2  688  275           
18 18.02.18 280 (З) 4000 м  снег  10/10 300 м 
[Ns]
+0.2 -0.7 94 +1  1020.5  1.5  689  277    +3  12     
21 18.02.18 тихо ()   4000 м  снег  10/10 300 м 
[Ns]
-0.5 -1.4 94 -1  1021.6  1.1  690  279           
00 19.02.18 280 (З) 4000 м  снег  10/10 300 м 
[Ns]
-0.3 -0.8 96 -1  1020.8  -0.8  689  278           
03 19.02.18 270 (З) 4000 м  слаб. снег  10/10 300 м 
[Ns]
-0.4 -1 96 -1  1021.1  0.3  690  278           
06 19.02.18 160 (Ю) 0200 м  туман{снег}  ?/?  
+0.3 +0 98 +1  1021.9  0.8  690  278  -0.8    12  равномерный
сухой снег
100% 
09 19.02.18 280 (З) 2000 м  дымка{туман}  10/10 600 м 
[Sc]
+0.7 +0.1 96 1021.1  690  277           
12 19.02.18 250 (З) 0200 м  туман  ?/?  
+0.4 +0.1 98 1020.7  -0.4  690  277           
15 19.02.18 260 (З) 0200 м  туман{снег}  ?/?  
-0.1 -0.4 98 -1  1022  0.5  690  278           
21 19.02.18 340 (С) 0200 м  туман  ?/?  
+0.2 -0.1 98 +1  1023.8  0.4  692  278           
00 20.02.18 270 (З) 0200 м  туман  ?/?  
+0 -0.3 98 +1  1023.8  692  279           
03 20.02.18 280 (З) 0200 м  туман{морось}  ?/?  
+0.3 +0 98 1024  0.2  692  278           
06 20.02.18 230 (ЮЗ) 0200 м  слаб. морось{туман}  ?/?  
+1 +0.7 98 +2  1024.9  1.1  693  278  -0.5    0.5  равномерный
сухой снег
100% 
09 20.02.18 250 (З) 0200 м  туман{морось}  ?/?  
+1.4 +0.9 96 1024.9  693  277           
12 20.02.18 230 (ЮЗ) 0200 м  туман  ?/?  
+2.3 +2.2 99 +2  1022.4  -1.2  692  276           
Время (UTC), дата Ветер
(°,м/с) 
Видим.   Явления Облачность Т
(°С)
Тd
(°С)
f(%) Тe
(°С)
Pmin
(гПа)
dP
(гПа)
Po
(мм)
O2
(г/м3)
Тmin Tmax R s Состояние
почвы

Для получения пояснительной информации подведите курсор к названию столбца.

ПОГОДА Шамахы - архив

Всё, что Вы хотите узнать о погоде Шамахы - удобно и подробно!

Выберите нужную дату (начиная с 1 января 2015* года) и нажмите кнопку "Найти".
Будут отображены архивные сводки погоды по пункту Шамахы, начиная с указанной даты.


Отображать данные в формате CSV (для использования в таблицах Excel)


Внимание! Наш архив погоды предназначен исключительно для личного некоммерческого использования в познавательных целях. Если Вам необходимы официальные справки о состоянии погоды (для производственных, юридических, коммерческих и т.п. целей), обращайтесь в органы Росгидромета.

*Примечание: данная дата относится к архиву по метеостанциям СССР (Россия, СНГ, Балтия).
Архив по метеостанциям Зарубежной Европы и Азии (кроме Китая) хранится 10 дней, по другим регионам земного шара (Китай, Африка, Америка, Австралия, Океания) - 1 день.

Шамахы - район местоположения метеостанции


Название, широта, долгота, высота метеостанции:
Шамахы 40.6°ш. 48.6°д. 749 м над ур. моря [Азербайджан]

Дополнительная информация

В oтличие oт бoльшинства пoгoдных сайтoв мы публикуем пoдрoбную метеoинфoрмацию в детальнoм прoфессиoнальнoм фoрмате.

Характеристики температуры и влажнoсти вoздуха измеряются на высoте 2 м в тени вдали oт зданий и деревьев.
Скoрoсть ветра измеряется на высoте 10 м (на урoвне рoста челoвека скoрoсть ветра ниже в 1.5-2 раза). Если метеoстанция нахoдится в гoрoде или в лесу, тo скoрoсть ветра занижена на 2-4 м/с пo сравнению с oткрытым местoм. Скoрoсть ветра над акватoриями крупных рек и oзёр, а также на вершинах хoлмoв на 2-5 м/с выше, чем в oбычных услoвиях.
Атмoсфернoе давление в разных тoчках местнoсти мoжет значительнo oтличаться oт давления на метеoстанции, в зависимoсти oт услoвий рельефа (при пoдъёме на 10 м давление пoнижается примернo на 1 мм рт.ст.).